Simultaneous Nadir Overpasses (SNOs) Predictions

Prediction of SNOs between LANDSAT-8 and NPP Satellite Orbit:

Table of predicted SNOs for the next 14.0 days since TLE Epoch: 3/21/2016
Index Date (LANDSAT-8) Time (LANDSAT-8) Lat,Lon (LANDSAT-8) SZA (LANDSAT-8 ) Date (NPP) Time (NPP) Lat,Lon (NPP) SZA (NPP ) Distance(km) Time Diff (sec)
1 03/21/2016 13:52:11 70.30, -31.45 69.72 03/21/2016 13:51:03 70.31, -31.39 69.75 2.50 68
2 03/21/2016 14:41:40 -70.23, 136.09 110.36 03/21/2016 14:41:45 -70.21, 136.08 110.38 2.45 5
3 03/21/2016 15:31:13 69.80, -56.87 69.23 03/21/2016 15:32:23 69.79, -55.98 69.17 34.19 70
4 03/24/2016 06:08:39 70.26, 84.38 68.63 03/24/2016 06:07:55 70.28, 84.43 68.65 3.06 44
5 03/24/2016 06:58:08 -70.20,-108.07 111.45 03/24/2016 06:58:37 -70.18,-108.09 111.47 2.41 29
6 03/26/2016 21:35:25 -71.08, 33.86 111.63 03/26/2016 21:34:17 -71.13, 31.51 111.50 84.78 68
7 03/26/2016 22:25:05 70.27,-159.73 67.58 03/26/2016 22:24:46 70.25,-159.75 67.57 1.68 19
8 03/26/2016 23:14:35 -70.15, 7.75 112.55 03/26/2016 23:15:28 -70.15, 7.73 112.56 0.99 53
9 03/29/2016 13:52:06 -70.32, 148.59 113.41 03/29/2016 13:50:54 -70.32, 148.61 113.40 0.90 72
10 03/29/2016 14:41:33 70.21, -43.92 66.47 03/29/2016 14:41:38 70.23, -43.94 66.50 2.55 5
11 03/29/2016 15:31:05 -69.99, 123.40 113.76 03/29/2016 15:32:17 -69.96, 123.79 113.80 15.03 72
12 04/01/2016 06:08:33 -70.31, -95.54 114.46 04/01/2016 06:07:46 -70.30, -95.58 114.46 1.91 47
13 04/01/2016 06:58:00 70.20, 71.95
